Location: Marcé
(47.5801°N, 0.3280°W)
Time: 23:19:53
(UTC+01:00)

Transit 2A - Pass Details

Date: 07 December 2021
Orbit: 591 x 967 km, 66.7° (Epoch: 23 January)

Event Time Altitude Azimuth Distance (km) Brightness Sun altitude
Rises 23:03:10 0° 173° (S) 3,293 - -56.8°
Reaches altitude 10° 23:05:52 10° 160° (SSE) 2,431 - -57.2°
Maximum altitude 23:10:23 25° 107° (ESE) 1,698 - -57.8°
Drops below altitude 10° 23:15:13 10° 54° (NE) 2,624 - -58.4°
Sets 23:18:15 0° 43° (NE) 3,613 - -58.7°
